When you browse on this site, cookies collect data to enhance your experience and personalize the content and advertising you see.
Visit our Privacy Policy to learn more. By continuing to use the site, you agree to this use of cookies and data.
  • In Latvia
  • List of Countries
  • For 7 days
  • Water Temperature
  • Weather Map
  • Weather Widgets
  • user-avatar
    Login

    Hourly Weather Bhubaneswar

    Today, 28 February, Friday

    Time Temperature Precipitation Wind Pressure Humidity
    00:00 +23°C° 0 mm 2 mps 758 mmHg 74%
    01:00 +22°C° 0 mm 1 mps 758 mmHg 76%
    02:00 +22°C° 0 mm 1 mps 757 mmHg 78%
    03:00 +20°C° 0 mm 0 mps 757 mmHg 81%
    04:00 +20°C° 0 mm 0 mps 757 mmHg 82%
    05:00 +19°C° 0 mm 0 mps 757 mmHg 83%
    06:00 +21°C° 0 mm 1 mps 757 mmHg 93%
    07:00 +23°C° 0 mm 1 mps 758 mmHg 84%
    08:00 +23°C° 0 mm 0 mps 759 mmHg 76%
    09:00 +24°C° 0 mm 0 mps 759 mmHg 68%
    10:00 +28°C° 0 mm 1 mps 759 mmHg 58%
    11:00 +29°C° 0 mm 1 mps 759 mmHg 48%
    12:00 +31°C° 0 mm 1 mps 759 mmHg 39%
    13:00 +31°C° 0 mm 1 mps 758 mmHg 38%
    14:00 +32°C° 0 mm 1 mps 757 mmHg 36%
    15:00 +32°C° 0 mm 1 mps 756 mmHg 34%
    16:00 +31°C° 0 mm 3 mps 756 mmHg 40%
    17:00 +29°C° 0 mm 4 mps 756 mmHg 45%
    18:00 +28°C° 0 mm 4 mps 757 mmHg 50%
    19:00 +27°C° 0 mm 3 mps 757 mmHg 54%
    20:00 +26°C° 0 mm 3 mps 757 mmHg 58%
    21:00 +25°C° 0 mm 2 mps 758 mmHg 61%
    22:00 +24°C° 0 mm 2 mps 757 mmHg 63%
    23:00 +24°C° 0 mm 2 mps 757 mmHg 65%

    Tomorrow, 29 February, Saturday

    Time Temperature Precipitation Wind Pressure Humidity
    00:00 +24°C° 0 mm 1 mps 757 mmHg 67%
    01:00 +23°C° 0 mm 1 mps 757 mmHg 69%
    02:00 +23°C° 0 mm 1 mps 756 mmHg 70%
    03:00 +21°C° 0 mm 0 mps 756 mmHg 71%
    04:00 +21°C° 0 mm 0 mps 756 mmHg 73%
    05:00 +20°C° 0 mm 0 mps 756 mmHg 74%
    06:00 +20°C° 0 mm 0 mps 756 mmHg 75%
    07:00 +24°C° 0 mm 1 mps 757 mmHg 69%
    08:00 +25°C° 0 mm 1 mps 757 mmHg 64%
    09:00 +27°C° 0 mm 2 mps 758 mmHg 58%
    10:00 +28°C° 0 mm 1 mps 758 mmHg 51%
    11:00 +30°C° 0 mm 1 mps 758 mmHg 44%
    12:00 +32°C° 0 mm 1 mps 758 mmHg 38%
    13:00 +32°C° 0 mm 1 mps 757 mmHg 35%
    14:00 +33°C° 0 mm 1 mps 756 mmHg 33%
    15:00 +33°C° 0 mm 1 mps 755 mmHg 31%
    16:00 +31°C° 0 mm 2 mps 755 mmHg 37%
    17:00 +30°C° 0 mm 3 mps 755 mmHg 43%
    18:00 +28°C° 0 mm 5 mps 755 mmHg 49%
    19:00 +27°C° 0 mm 4 mps 755 mmHg 54%
    20:00 +26°C° 0 mm 3 mps 756 mmHg 58%
    21:00 +25°C° 0 mm 2 mps 756 mmHg 63%
    22:00 +25°C° 0 mm 2 mps 757 mmHg 65%
    23:00 +25°C° 0 mm 2 mps 757 mmHg 67%

    Day after tomorrow, 1 March, Sunday

    Time Temperature Precipitation Wind Pressure Humidity
    00:00 +24°C° 0 mm 2 mps 757 mmHg 69%
    01:00 +24°C° 0 mm 2 mps 756 mmHg 71%
    02:00 +24°C° 0 mm 2 mps 756 mmHg 72%
    03:00 +23°C° 0 mm 2 mps 756 mmHg 74%
    04:00 +23°C° 0 mm 2 mps 756 mmHg 75%
    05:00 +23°C° 0 mm 2 mps 756 mmHg 76%
    06:00 +23°C° 0 mm 2 mps 756 mmHg 78%
    07:00 +24°C° 0 mm 2 mps 757 mmHg 71%
    08:00 +26°C° 0 mm 3 mps 757 mmHg 64%
    09:00 +28°C° 0 mm 3 mps 758 mmHg 56%
    10:00 +29°C° 0 mm 3 mps 758 mmHg 50%
    11:00 +31°C° 0 mm 3 mps 757 mmHg 44%
    12:00 +33°C° 0 mm 3 mps 757 mmHg 38%
    13:00 +34°C° 0 mm 2 mps 756 mmHg 35%
    14:00 +35°C° 0 mm 2 mps 755 mmHg 33%
    15:00 +35°C° 0 mm 2 mps 755 mmHg 30%
    16:00 +34°C° 0 mm 2 mps 754 mmHg 34%
    17:00 +33°C° 0 mm 3 mps 754 mmHg 38%
    18:00 +30°C° 0 mm 4 mps 754 mmHg 42%
    19:00 +29°C° 0 mm 3 mps 755 mmHg 48%
    20:00 +27°C° 0 mm 3 mps 755 mmHg 55%
    21:00 +26°C° 0 mm 3 mps 756 mmHg 61%
    22:00 +26°C° 0 mm 2 mps 756 mmHg 64%
    23:00 +25°C° 0 mm 2 mps 756 mmHg 67%

    2 March, Monday

    Time Temperature Precipitation Wind Pressure Humidity
    00:00 +25°C° 0 mm 2 mps 756 mmHg 71%
    01:00 +25°C° 0 mm 2 mps 755 mmHg 73%
    02:00 +24°C° 0 mm 2 mps 755 mmHg 76%
    03:00 +24°C° 0 mm 3 mps 755 mmHg 78%
    04:00 +24°C° 0 mm 2 mps 755 mmHg 80%
    05:00 +24°C° 0 mm 2 mps 755 mmHg 83%
    06:00 +23°C° 0 mm 2 mps 755 mmHg 85%
    07:00 +25°C° 0 mm 3 mps 756 mmHg 77%
    08:00 +27°C° 0 mm 3 mps 756 mmHg 70%
    09:00 +29°C° 0 mm 4 mps 757 mmHg 63%
    10:00 +30°C° 0 mm 4 mps 757 mmHg 54%
    11:00 +33°C° 0 mm 4 mps 757 mmHg 46%
    12:00 +35°C° 0 mm 4 mps 756 mmHg 38%
    13:00 +35°C° 0 mm 3 mps 756 mmHg 35%
    14:00 +36°C° 0 mm 3 mps 755 mmHg 32%
    15:00 +36°C° 0 mm 3 mps 754 mmHg 29%
    16:00 +35°C° 0 mm 4 mps 754 mmHg 34%
    17:00 +33°C° 0 mm 4 mps 754 mmHg 39%
    18:00 +32°C° 0 mm 5 mps 754 mmHg 45%
    19:00 +29°C° 0 mm 4 mps 754 mmHg 51%
    20:00 +28°C° 0 mm 3 mps 755 mmHg 57%
    21:00 +27°C° 0 mm 2 mps 756 mmHg 64%
    22:00 +26°C° 0 mm 2 mps 756 mmHg 65%
    23:00 +26°C° 0 mm 1 mps 755 mmHg 66%

    3 March, Tuesday

    Time Temperature Precipitation Wind Pressure Humidity
    00:00 +25°C° 0 mm 1 mps 755 mmHg 67%
    01:00 +25°C° 0 mm 2 mps 755 mmHg 71%
    02:00 +25°C° 0 mm 2 mps 755 mmHg 76%
    03:00 +25°C° 0 mm 3 mps 754 mmHg 80%
    04:00 +25°C° 0 mm 3 mps 754 mmHg 82%
    05:00 +25°C° 0 mm 3 mps 754 mmHg 83%
    06:00 +25°C° 0 mm 4 mps 754 mmHg 85%
    07:00 +26°C° 0 mm 4 mps 755 mmHg 76%
    08:00 +28°C° 0 mm 5 mps 756 mmHg 67%
    09:00 +30°C° 0 mm 5 mps 756 mmHg 58%
    10:00 +32°C° 0 mm 6 mps 756 mmHg 51%
    11:00 +34°C° 0 mm 6 mps 756 mmHg 43%
    12:00 +36°C° 0 mm 6 mps 755 mmHg 36%
    13:00 +36°C° 0 mm 6 mps 755 mmHg 35%
    14:00 +36°C° 0 mm 6 mps 754 mmHg 34%
    15:00 +37°C° 0 mm 5 mps 753 mmHg 33%
    16:00 +35°C° 0 mm 5 mps 753 mmHg 39%
    17:00 +33°C° 0 mm 5 mps 753 mmHg 46%
    18:00 +30°C° 0 mm 5 mps 752 mmHg 52%
    19:00 +29°C° 0 mm 5 mps 753 mmHg 56%
    20:00 +28°C° 0 mm 5 mps 753 mmHg 61%
    21:00 +28°C° 0 mm 5 mps 754 mmHg 65%
    22:00 +28°C° 0 mm 5 mps 754 mmHg 66%
    23:00 +27°C° 0 mm 5 mps 754 mmHg 66%

    4 March, Wednesday

    Time Temperature Precipitation Wind Pressure Humidity
    00:00 +27°C° 0 mm 5 mps 754 mmHg 67%
    01:00 +27°C° 0 mm 5 mps 753 mmHg 67%
    02:00 +27°C° 0 mm 5 mps 753 mmHg 66%
    03:00 +27°C° 0 mm 5 mps 753 mmHg 66%
    04:00 +27°C° 0 mm 5 mps 753 mmHg 67%
    05:00 +27°C° 0 mm 6 mps 753 mmHg 67%
    06:00 +27°C° 0 mm 6 mps 753 mmHg 68%
    07:00 +28°C° 0 mm 6 mps 754 mmHg 65%
    08:00 +29°C° 0 mm 6 mps 754 mmHg 61%
    09:00 +30°C° 0 mm 6 mps 755 mmHg 58%
    10:00 +33°C° 0 mm 7 mps 755 mmHg 52%
    11:00 +34°C° 0 mm 7 mps 755 mmHg 46%
    12:00 +36°C° 0 mm 7 mps 755 mmHg 40%
    13:00 +35°C° 0.1 mm 7 mps 754 mmHg 40%
    14:00 +35°C° 0.1 mm 7 mps 753 mmHg 40%
    15:00 +35°C° 0.1 mm 7 mps 752 mmHg 41%
    16:00 +34°C° 0 mm 7 mps 752 mmHg 46%
    17:00 +32°C° 0 mm 7 mps 752 mmHg 51%
    18:00 +30°C° 0 mm 7 mps 752 mmHg 56%
    19:00 +29°C° 0.1 mm 6 mps 753 mmHg 57%
    20:00 +29°C° 0.1 mm 5 mps 754 mmHg 58%
    21:00 +29°C° 0.1 mm 4 mps 754 mmHg 59%
    22:00 +28°C° 0 mm 3 mps 755 mmHg 61%
    23:00 +28°C° 0 mm 3 mps 755 mmHg 64%
    Show more